• en France
  • Liste des pays
  • À 7 jours
  • Température de l'eau
  • Carte satellitaire
  • Carte météo
  • Widgets météo
  • user-avatar
    Se connecter

    Météo par heure à Ch'ŏngjin

    Ce jour, 20 Août, Lundi

    Heure Température Précipitation Vent Pression Humidité
    00:00 +24°C° 0 mm 2 m/s 758 mmHg 93%
    01:00 +24°C° 0,1 mm 2 m/s 758 mmHg 94%
    02:00 +24°C° 0,1 mm 2 m/s 758 mmHg 94%
    03:00 +24°C° 0 mm 2 m/s 757 mmHg 94%
    04:00 +24°C° 0,7 mm 2 m/s 757 mmHg 95%
    05:00 +24°C° 0,7 mm 2 m/s 757 mmHg 96%
    06:00 +24°C° 0,7 mm 2 m/s 757 mmHg 97%
    07:00 +24°C° 0,9 mm 2 m/s 757 mmHg 97%
    08:00 +25°C° 0,9 mm 2 m/s 757 mmHg 97%
    09:00 +25°C° 0 mm 2 m/s 757 mmHg 97%
    10:00 +25°C° 1,4 mm 2 m/s 757 mmHg 97%
    11:00 +25°C° 1,4 mm 2 m/s 757 mmHg 96%
    12:00 +26°C° 1,4 mm 2 m/s 756 mmHg 96%
    13:00 +25°C° 0,6 mm 2 m/s 756 mmHg 97%
    14:00 +25°C° 0,6 mm 2 m/s 756 mmHg 97%
    15:00 +25°C° 0,6 mm 2 m/s 756 mmHg 97%
    16:00 +25°C° 0,5 mm 2 m/s 755 mmHg 98%
    17:00 +24°C° 0,5 mm 2 m/s 755 mmHg 98%
    18:00 +24°C° 0,5 mm 2 m/s 755 mmHg 98%
    19:00 +23°C° 1,3 mm 2 m/s 754 mmHg 98%
    20:00 +23°C° 1,3 mm 2 m/s 754 mmHg 98%
    21:00 +23°C° 1,3 mm 2 m/s 754 mmHg 98%
    22:00 +21°C° 1 mm 2 m/s 753 mmHg 98%
    23:00 +21°C° 1 mm 2 m/s 753 mmHg 98%

    Demain, 21 Août, Mardi

    Heure Température Précipitation Vent Pression Humidité
    00:00 +21°C° 1 mm 2 m/s 752 mmHg 98%
    01:00 +21°C° 2,1 mm 3 m/s 751 mmHg 98%
    02:00 +21°C° 2,1 mm 3 m/s 751 mmHg 98%
    03:00 +22°C° 2,1 mm 3 m/s 750 mmHg 98%
    04:00 +22°C° 4,7 mm 4 m/s 749 mmHg 97%
    05:00 +22°C° 4,7 mm 4 m/s 749 mmHg 97%
    06:00 +22°C° 4,7 mm 5 m/s 749 mmHg 97%
    07:00 +23°C° 0,3 mm 4 m/s 748 mmHg 95%
    08:00 +25°C° 0,3 mm 4 m/s 748 mmHg 93%
    09:00 +26°C° 0,3 mm 3 m/s 748 mmHg 92%
    10:00 +27°C° 0,1 mm 3 m/s 748 mmHg 90%
    11:00 +27°C° 0,1 mm 3 m/s 748 mmHg 88%
    12:00 +28°C° 0,1 mm 3 m/s 749 mmHg 86%
    13:00 +30°C° 0 mm 3 m/s 748 mmHg 77%
    14:00 +33°C° 0 mm 3 m/s 748 mmHg 67%
    15:00 +34°C° 0 mm 3 m/s 748 mmHg 57%
    16:00 +32°C° 0,1 mm 2 m/s 749 mmHg 65%
    17:00 +31°C° 0,1 mm 2 m/s 749 mmHg 72%
    18:00 +30°C° 0,1 mm 2 m/s 749 mmHg 79%
    19:00 +28°C° 0,1 mm 2 m/s 750 mmHg 83%
    20:00 +26°C° 0,1 mm 2 m/s 751 mmHg 86%
    21:00 +24°C° 0,1 mm 2 m/s 752 mmHg 90%
    22:00 +24°C° 0,1 mm 2 m/s 752 mmHg 89%
    23:00 +24°C° 0,1 mm 2 m/s 752 mmHg 88%

    Après-demain, 22 Août, Mercredi

    Heure Température Précipitation Vent Pression Humidité
    00:00 +23°C° 0,1 mm 2 m/s 753 mmHg 87%
    01:00 +23°C° 0 mm 2 m/s 753 mmHg 87%
    02:00 +23°C° 0 mm 2 m/s 753 mmHg 86%
    03:00 +21°C° 0 mm 2 m/s 753 mmHg 86%
    04:00 +21°C° 0 mm 2 m/s 753 mmHg 85%
    05:00 +21°C° 0 mm 2 m/s 754 mmHg 85%
    06:00 +21°C° 0 mm 2 m/s 754 mmHg 84%
    07:00 +25°C° 0 mm 2 m/s 754 mmHg 78%
    08:00 +27°C° 0 mm 1 m/s 755 mmHg 72%
    09:00 +29°C° 0 mm 1 m/s 755 mmHg 66%
    10:00 +30°C° 0 mm 2 m/s 755 mmHg 63%
    11:00 +32°C° 0 mm 2 m/s 755 mmHg 60%
    12:00 +34°C° 0 mm 3 m/s 755 mmHg 57%
    13:00 +33°C° 0 mm 3 m/s 755 mmHg 61%
    14:00 +33°C° 0 mm 3 m/s 755 mmHg 64%
    15:00 +31°C° 0 mm 3 m/s 754 mmHg 68%
    16:00 +30°C° 0 mm 2 m/s 754 mmHg 73%
    17:00 +29°C° 0 mm 2 m/s 754 mmHg 79%
    18:00 +28°C° 0 mm 2 m/s 755 mmHg 84%
    19:00 +27°C° 0 mm 2 m/s 755 mmHg 88%
    20:00 +26°C° 0 mm 1 m/s 755 mmHg 92%
    21:00 +25°C° 0 mm 1 m/s 756 mmHg 96%
    22:00 +25°C° 0 mm 1 m/s 756 mmHg 95%
    23:00 +24°C° 0 mm 1 m/s 756 mmHg 94%

    23 Août, Jeudi

    Heure Température Précipitation Vent Pression Humidité
    00:00 +24°C° 0 mm 1 m/s 756 mmHg 94%
    01:00 +24°C° 1,6 mm 1 m/s 756 mmHg 94%
    02:00 +24°C° 1,6 mm 1 m/s 756 mmHg 94%
    03:00 +24°C° 1,6 mm 1 m/s 756 mmHg 94%
    04:00 +24°C° 3,4 mm 2 m/s 756 mmHg 95%
    05:00 +24°C° 3,4 mm 2 m/s 756 mmHg 96%
    06:00 +24°C° 3,4 mm 2 m/s 756 mmHg 97%
    07:00 +24°C° 4,6 mm 3 m/s 756 mmHg 97%
    08:00 +24°C° 4,6 mm 3 m/s 756 mmHg 98%
    09:00 +24°C° 4,6 mm 3 m/s 756 mmHg 98%
    10:00 +24°C° 3 mm 3 m/s 756 mmHg 98%
    11:00 +25°C° 3 mm 3 m/s 756 mmHg 98%
    12:00 +25°C° 3 mm 3 m/s 755 mmHg 98%
    13:00 +25°C° 4 mm 3 m/s 755 mmHg 98%
    14:00 +25°C° 4 mm 3 m/s 754 mmHg 98%
    15:00 +25°C° 4 mm 3 m/s 754 mmHg 98%
    16:00 +25°C° 2,8 mm 3 m/s 754 mmHg 98%
    17:00 +25°C° 2,8 mm 3 m/s 753 mmHg 98%
    18:00 +25°C° 2,8 mm 3 m/s 753 mmHg 97%
    19:00 +25°C° 2,1 mm 3 m/s 752 mmHg 98%
    20:00 +25°C° 2,1 mm 3 m/s 752 mmHg 98%
    21:00 +25°C° 2,1 mm 3 m/s 752 mmHg 99%
    22:00 +25°C° 1,2 mm 4 m/s 751 mmHg 99%
    23:00 +25°C° 1,2 mm 4 m/s 751 mmHg 99%

    24 Août, Vendredi

    Heure Température Précipitation Vent Pression Humidité
    00:00 +25°C° 1,2 mm 5 m/s 750 mmHg 99%
    01:00 +23°C° 0,4 mm 5 m/s 750 mmHg 99%
    02:00 +23°C° 0,4 mm 5 m/s 749 mmHg 99%
    03:00 +23°C° 0,4 mm 5 m/s 748 mmHg 99%
    04:00 +23°C° 0,5 mm 5 m/s 748 mmHg 99%
    05:00 +23°C° 0,5 mm 5 m/s 747 mmHg 99%
    06:00 +23°C° 0,5 mm 5 m/s 747 mmHg 99%
    07:00 +23°C° 2,4 mm 5 m/s 746 mmHg 99%
    08:00 +23°C° 2,4 mm 6 m/s 746 mmHg 99%
    09:00 +23°C° 2,4 mm 6 m/s 745 mmHg 99%
    10:00 +23°C° 2,7 mm 6 m/s 745 mmHg 99%
    11:00 +23°C° 2,7 mm 7 m/s 744 mmHg 98%
    12:00 +23°C° 2,7 mm 7 m/s 743 mmHg 98%
    13:00 +23°C° 10,6 mm 8 m/s 742 mmHg 98%
    14:00 +23°C° 10,6 mm 9 m/s 741 mmHg 98%
    15:00 +23°C° 10,6 mm 10 m/s 740 mmHg 98%
    16:00 +23°C° 11 mm 9 m/s 740 mmHg 98%
    17:00 +23°C° 11 mm 9 m/s 740 mmHg 98%
    18:00 +23°C° 11 mm 9 m/s 740 mmHg 97%
    19:00 +23°C° 1,8 mm 7 m/s 740 mmHg 96%
    20:00 +23°C° 1,8 mm 6 m/s 741 mmHg 96%
    21:00 +23°C° 1,8 mm 5 m/s 741 mmHg 95%
    22:00 +22°C° 0 mm 5 m/s 742 mmHg 95%
    23:00 +22°C° 0 mm 4 m/s 742 mmHg 95%

    25 Août, Samedi

    Heure Température Précipitation Vent Pression Humidité
    00:00 +22°C° 0 mm 3 m/s 743 mmHg 95%
    01:00 +22°C° 0 mm 3 m/s 743 mmHg 95%
    02:00 +22°C° 0 mm 3 m/s 743 mmHg 94%
    03:00 +21°C° 0 mm 3 m/s 743 mmHg 93%
    04:00 +21°C° 0 mm 3 m/s 744 mmHg 93%
    05:00 +21°C° 0 mm 3 m/s 744 mmHg 93%
    06:00 +21°C° 0 mm 3 m/s 745 mmHg 93%
    07:00 +24°C° 0 mm 3 m/s 745 mmHg 87%
    08:00 +27°C° 0 mm 3 m/s 745 mmHg 81%
    09:00 +29°C° 0 mm 3 m/s 746 mmHg 76%
    10:00 +30°C° 0 mm 3 m/s 746 mmHg 71%
    11:00 +32°C° 0 mm 4 m/s 746 mmHg 66%
    12:00 +33°C° 0 mm 5 m/s 746 mmHg 61%
    13:00 +32°C° 0,1 mm 5 m/s 746 mmHg 65%
    14:00 +32°C° 0,1 mm 5 m/s 746 mmHg 69%
    15:00 +30°C° 0,1 mm 5 m/s 746 mmHg 73%
    16:00 +29°C° 0,2 mm 6 m/s 747 mmHg 75%
    17:00 +29°C° 0,2 mm 6 m/s 747 mmHg 77%
    18:00 +28°C° 0,2 mm 6 m/s 747 mmHg 79%
    19:00 +27°C° 0 mm 6 m/s 748 mmHg 81%
    20:00 +24°C° 0 mm 6 m/s 748 mmHg 83%
    21:00 +22°C° 0 mm 6 m/s 749 mmHg 85%
    22:00 +22°C° 0 mm 5 m/s 749 mmHg 84%
    23:00 +21°C° 0 mm 5 m/s 749 mmHg 84%
    Voir plus